DateTimeUTC,F1_A11,F1_S11,BsB_S11,BsG_S11,BsR_S11,BbsB_S11,BbsG_S11,BbsR_S11,BaB_A11,BaG_A11,BaR_A11,Tu_S11,T_S11,Uu_S11,U_S11,P_S11,T1_A11
2021-08-21T22:00:00Z,00000200,20000000,,,,,,,0000.32,-000.41,-000.14,19.2,25.9,10.5,07.0,0678.2,31.0
2021-08-21T22:01:00Z,00000200,20000000,,,,,,,-000.51,-000.07,-000.34,19.2,25.9,10.5,07.0,0678.2,31.0
2021-08-21T22:02:00Z,00000200,20000000,,,,,,,0000.27,0000.40,0000.04,19.1,25.9,10.6,07.0,0678.1,31.0
2021-08-21T22:03:00Z,00000200,60000000,,,,,,,0000.37,0000.56,0000.67,19.1,25.9,10.6,07.0,0678.1,31.0
2021-08-21T22:04:00Z,00000200,40000000,0003.01,0002.56,0001.71,0000.25,0000.58,0000.40,0000.96,0000.72,0000.30,19.3,25.7,10.7,07.2,0679.1,31.0
2021-08-21T22:05:00Z,00000200,00000000,0002.84,0002.60,0001.71,0000.20,0000.26,0000.32,0000.60,0000.21,0000.80,19.3,25.7,10.7,07.3,0679.2,31.0
2021-08-21T22:06:00Z,00000200,00000000,0002.81,0002.97,0001.90,0000.81,0000.26,0000.51,0000.89,0001.15,0000.55,19.3,25.7,10.5,07.2,0679.2,31.0
2021-08-21T22:07:00Z,00000200,00000000,0003.50,0002.93,0001.79,0000.12,0000.12,0000.46,0000.39,0000.10,0000.67,19.3,25.7,10.4,07.1,0679.2,31.0
2021-08-21T22:08:00Z,00000200,00000000,0002.67,0002.65,0001.84,0000.21,0000.63,0000.49,0000.86,0000.93,0000.67,19.3,25.7,10.4,07.1,0679.2,31.0
2021-08-21T22:09:00Z,00000200,00000000,0003.08,0002.55,0002.02,0001.06,0000.23,0000.52,0001.05,0000.92,0000.46,19.3,25.6,10.5,07.1,0679.2,31.0
2021-08-21T22:10:00Z,00000200,00000000,0003.74,0002.55,0001.64,0000.67,0000.28,0000.13,0000.83,0000.73,0000.79,19.3,25.6,10.6,07.2,0679.2,31.0
2021-08-21T22:11:00Z,00000200,00000000,0004.52,0002.42,0001.72,0000.61,0000.13,0000.54,0000.54,0000.62,0000.26,19.3,25.6,10.6,07.2,0679.2,31.0
2021-08-21T22:12:00Z,00000200,00000000,0003.45,0002.83,0001.76,0000.56,0000.68,0000.42,0000.95,0000.87,0000.81,19.3,25.6,10.5,07.2,0679.2,31.0
2021-08-21T22:13:00Z,00000200,00000000,0002.86,0002.74,0001.86,0000.91,0000.08,0000.47,0000.85,0000.56,0000.75,19.3,25.6,10.5,07.2,0679.2,31.0
2021-08-21T22:14:00Z,00000200,00000000,0003.71,0002.61,0001.90,0000.43,0000.44,0000.55,0000.91,0000.90,0000.54,19.3,25.6,10.4,07.1,0679.2,31.0
2021-08-21T22:15:00Z,00000200,00000000,0003.40,0003.00,0002.02,0000.81,0000.24,0000.42,0000.48,0000.58,0000.37,19.3,25.6,10.6,07.2,0679.1,31.0
2021-08-21T22:16:00Z,00000200,00000000,0003.53,0003.18,0002.00,0000.38,0000.40,0000.22,0000.69,0000.65,0000.41,19.3,25.6,10.3,07.0,0679.2,31.0
2021-08-21T22:17:00Z,00000200,00000000,0003.89,0003.05,0001.97,0000.35,0000.27,0000.21,0000.77,0000.86,0000.44,19.3,25.6,10.4,07.1,0679.2,31.0
2021-08-21T22:18:00Z,00000200,00000000,0003.60,0002.89,0001.46,0000.69,0000.35,0000.70,0000.89,0000.77,0000.80,19.3,25.6,10.3,07.0,0679.2,31.0
2021-08-21T22:19:00Z,00000200,00000000,0003.49,0003.11,0001.94,0000.73,0000.18,0000.35,0001.11,0000.96,0000.95,19.3,25.6,10.4,07.1,0679.2,31.0
2021-08-21T22:20:00Z,00000200,00000000,0003.36,0002.21,0001.71,0000.16,0000.07,0000.35,0001.06,0000.44,0000.89,19.3,25.6,10.4,07.2,0679.2,31.0
2021-08-21T22:21:00Z,00000200,00000000,0002.72,0002.03,0001.25,0000.53,0000.36,0000.55,0000.63,0001.05,0000.17,19.3,25.6,10.7,07.3,0679.2,31.0
2021-08-21T22:22:00Z,00000200,00000000,0001.93,0002.11,0001.50,0000.44,0000.55,0000.30,0000.68,0000.77,0000.75,19.3,25.6,10.7,07.4,0679.2,31.0
2021-08-21T22:23:00Z,00000200,00000000,0002.03,0002.26,0001.48,0000.20,0000.35,0000.52,0000.64,0000.39,0000.41,19.3,25.6,10.7,07.3,0679.2,31.0
2021-08-21T22:24:00Z,00000200,00000000,0002.30,0002.47,0001.75,-000.30,0000.29,0000.63,0000.48,0000.47,0000.53,19.3,25.6,10.7,07.3,0679.2,31.0
2021-08-21T22:25:00Z,00000200,00000000,0003.22,0002.14,0001.08,0000.30,0000.01,0000.44,0000.51,0000.69,0000.29,19.3,25.6,10.6,07.3,0679.1,31.0
2021-08-21T22:26:00Z,00000200,00000000,0002.88,0001.98,0001.20,0001.32,0000.02,0000.53,0001.04,0000.72,0000.53,19.3,25.6,10.6,07.3,0679.2,31.0
2021-08-21T22:27:00Z,00000200,00000000,0002.36,0001.96,0001.25,0000.68,0000.47,0000.41,0000.72,0000.79,0000.70,19.3,25.6,10.7,07.3,0679.2,31.0
2021-08-21T22:28:00Z,00000200,00000000,0001.52,0002.07,0001.01,0000.42,0000.05,0000.10,0000.44,0000.29,0000.28,19.3,25.6,10.7,07.3,0679.2,31.0
2021-08-21T22:29:00Z,00000200,00000000,0002.52,0002.14,0001.54,0000.19,0000.30,0000.31,0000.38,0000.59,0000.18,19.3,25.6,10.7,07.3,0679.2,31.0
2021-08-21T22:30:00Z,00000200,00000000,0003.24,0002.12,0001.60,0000.32,0000.24,0000.45,0000.80,-000.01,0000.25,19.3,25.5,10.6,07.3,0679.2,31.0
2021-08-21T22:31:00Z,00000200,00000000,0002.29,0002.52,0001.59,0000.38,0000.34,0000.37,0000.46,0000.91,0000.88,19.3,25.6,10.6,07.2,0679.2,31.0
2021-08-21T22:32:00Z,00000200,00000000,0003.09,0002.36,0001.62,0000.49,0000.29,0000.57,0000.76,0000.72,0000.38,19.3,25.6,10.6,07.3,0679.2,31.0
2021-08-21T22:33:00Z,00000200,00000000,0002.85,0002.57,0001.55,-000.05,0000.19,0000.37,0000.74,0000.17,0000.60,19.3,25.6,10.6,07.2,0679.2,31.0
2021-08-21T22:34:00Z,00000200,00000000,0002.28,0002.08,0001.38,0000.36,0000.01,0000.40,0000.63,0001.16,0000.28,19.3,25.6,10.5,07.2,0679.2,31.0
2021-08-21T22:35:00Z,00000200,00000000,0002.84,0002.32,0001.76,0000.81,0000.03,0000.65,0000.65,0000.27,0000.99,19.3,25.5,10.5,07.2,0679.2,31.0
2021-08-21T22:36:00Z,00000200,00000000,0002.31,0002.00,0001.66,0000.12,0000.36,0000.41,0000.81,0000.99,0000.31,19.3,25.5,10.6,07.3,0679.2,31.0
2021-08-21T22:37:00Z,00000200,00000000,0003.04,0002.54,0001.82,0000.92,0000.03,0000.32,0000.92,0000.95,0000.48,19.3,25.5,10.8,07.4,0679.2,31.0
2021-08-21T22:38:00Z,00000200,00000000,0002.92,0002.30,0001.80,0000.40,0000.16,0000.48,0000.31,0000.39,0000.59,19.3,25.6,10.7,07.3,0679.1,31.0
2021-08-21T22:39:00Z,00000200,00000000,0002.85,0002.50,0001.88,0000.67,0000.35,0000.73,0000.96,0000.87,0000.53,19.3,25.5,10.5,07.2,0679.2,31.0
2021-08-21T22:40:00Z,00000200,00000000,0002.86,0002.56,0001.85,0000.38,0000.39,0000.16,0000.65,0000.93,0000.57,19.3,25.5,10.7,07.3,0679.2,31.0
2021-08-21T22:41:00Z,00000200,00000000,0002.63,0002.40,0001.78,0000.20,0000.04,0000.56,0000.86,0000.56,0000.49,19.3,25.5,10.7,07.3,0679.2,31.0
2021-08-21T22:42:00Z,00000200,00000000,0002.17,0002.40,0001.80,0000.97,0000.28,0000.40,0000.54,0000.59,0000.55,19.3,25.5,10.8,07.4,0679.2,31.0
2021-08-21T22:43:00Z,00000200,00000000,0002.78,0002.38,0001.80,0000.32,0000.56,0000.41,0000.92,0000.87,0000.45,19.3,25.5,10.8,07.4,0679.2,31.0
2021-08-21T22:44:00Z,00000200,00000000,0002.37,0001.87,0001.53,0000.47,0000.29,0000.46,0000.48,0000.28,0000.69,19.3,25.5,11.0,07.5,0679.2,31.0
2021-08-21T22:45:00Z,00000200,00000000,0003.40,0002.42,0001.38,0000.42,0000.26,0000.19,0000.74,0000.77,0000.51,19.3,25.5,10.9,07.5,0679.2,31.0
2021-08-21T22:46:00Z,00000200,00000000,0002.30,0001.97,0001.63,0000.56,0000.08,0000.16,0000.75,0000.69,0000.62,19.3,25.5,10.9,07.4,0679.2,31.0
2021-08-21T22:47:00Z,00000200,00000000,0002.42,0002.01,0001.42,0000.08,0000.27,0000.27,0000.77,0000.27,0000.18,19.3,25.5,10.8,07.4,0679.2,31.0
2021-08-21T22:48:00Z,00000200,00000000,0001.98,0001.80,0001.50,0000.47,0000.19,0000.18,0000.83,0000.88,0000.62,19.3,25.5,11.0,07.5,0679.2,31.0
2021-08-21T22:49:00Z,00000200,00000000,0002.57,0002.04,0001.19,0000.84,0000.02,0000.11,0000.38,0000.31,0000.36,19.3,25.5,10.8,07.4,0679.2,31.0
2021-08-21T22:50:00Z,00000200,00000000,0002.62,0002.03,0001.62,0000.30,0000.37,0000.56,0000.11,0000.94,0000.52,19.3,25.5,10.8,07.4,0679.2,31.0
2021-08-21T22:51:00Z,00000200,00000000,0003.35,0002.36,0001.75,0000.49,0000.18,0000.37,0000.92,0000.23,0000.30,19.3,25.5,10.7,07.3,0679.2,31.0
2021-08-21T22:52:00Z,00000200,00000000,0002.28,0002.09,0001.37,0000.45,-000.01,0000.26,0000.49,0000.35,0000.30,19.3,25.5,10.7,07.4,0679.2,31.0
2021-08-21T22:53:00Z,00000200,00000000,0002.38,0002.36,0001.39,0000.42,0000.19,0000.32,0000.79,0000.71,0000.78,19.3,25.5,10.7,07.3,0679.2,30.9
2021-08-21T22:54:00Z,00000200,00000000,0002.35,0002.30,0001.33,0000.27,0000.24,0000.34,0000.60,0000.45,0000.43,19.3,25.5,10.7,07.3,0679.2,31.0
2021-08-21T22:55:00Z,00000200,00000000,0002.93,0002.03,0001.81,0000.14,0000.39,0000.72,0000.73,0000.52,0000.49,19.3,25.5,10.7,07.3,0679.2,31.0
2021-08-21T22:56:00Z,00000200,00000000,0002.43,0001.98,0001.57,-000.35,0000.50,0000.14,0000.60,0000.96,0000.56,19.3,25.5,10.7,07.3,0679.2,31.0
2021-08-21T22:57:00Z,00000200,40000000,,,,,,,0000.15,-000.06,-000.21,19.3,25.5,11.1,07.6,0679.2,31.0
2021-08-21T22:58:00Z,00000200,60000000,,,,,,,-000.22,0000.04,0000.25,19.1,25.6,10.7,07.2,0678.3,31.0
2021-08-21T22:59:00Z,00000200,20000000,,,,,,,0000.03,-000.14,-000.08,19.0,25.7,10.5,07.0,0678.3,31.0
